Flag for Brazil Weather past 2 weeks in Belo Horizonte, Minas Gerais, Brazil

Now
75 °F

Partly sunny.


Feels Like: 78 °F
Forecast: 58 / 78 °F
Wind: 7 mph from Northeast

Location: Belo Horizonte Airport

Current Time: Jul 1, 2015 at 4:38:59 PM

Latest Report: Jul 1, 2015 at 4:00 PM


Visibility: N/A

Pressure: 30.15 "Hg

Humidity: 57%

Dew point: 59 °F

Location of Belo HorizonteLocation

Historic Weather in Belo Horizonte — Graph

°F

Belo Horizonte temperature yesterday

Maximum temperature yesterday: 77 °F (at 2:00 PM)
Minimum temperature yesterday: 61 °F (at 2:00 AM)
Average temperature yesterday: 67 °F

Past Weeks' High & Low Weather Summary

 TemperatureHumidityPressure
High79 °F (Jun 18, 2:00 PM)100% (Jun 17, 4:00 AM)30.48 "Hg (Jun 17, 4:00 AM)
Low54 °F (Jun 27, 1:00 AM)25% (Jun 17, 10:00 AM)30.12 "Hg (Jun 16, 3:00 PM)
Average65 °F69%30.28 "Hg
* Reported Jun 16 3:00 PM — Jul 1 3:00 PM, Belo Horizonte, Weather by CustomWeather, © 2015

Note: Actual official high and low records may vary slightly from our data, if they occured in-between our weather recording intervals... More about our weather records

Advertising

Belo Horizonte weather history for previous 24 hours

 ConditionsComfort  
Time TempWeatherWind HumidityBarometerVisibility
3:00 PM
Wed, Jul 1
77 °FPartly sunny.6 mph42%30.15 "HgN/A
2:00 PM77 °FPartly sunny.5 mph51%30.15 "HgN/A
1:00 PM75 °FPartly sunny.3 mph54%30.18 "HgN/A
12:00 PM75 °FPassing clouds.12 mph54%30.21 "HgN/A
11:00 AM72 °FPassing clouds.7 mph65%30.24 "HgN/A
10:00 AM68 °FSunny.7 mph69%30.27 "Hg10 mi
9:00 AM66 °FSunny.2 mph73%30.27 "Hg10 mi
8:00 AM61 °FSunny.3 mph88%30.24 "Hg10 mi
7:00 AM59 °FSunny.3 mph94%30.21 "Hg10 mi
6:00 AM59 °FClear.3 mph88%30.21 "Hg10 mi
5:00 AM59 °FClear.5 mph88%30.18 "Hg10 mi
4:00 AM57 °FClear.3 mph100%30.18 "Hg10 mi
3:00 AM57 °FClear.2 mph94%30.18 "Hg10 mi
2:00 AM61 °FClear.2 mph83%30.18 "Hg10 mi
1:00 AM61 °FClear.2 mph83%30.21 "Hg10 mi
12:00 AM63 °FClear.3 mph77%30.21 "Hg10 mi
11:00 PM
Tue, Jun 30
61 °FClear.2 mph83%30.21 "Hg10 mi
10:00 PM63 °FClear.2 mph77%30.21 "Hg10 mi
9:00 PM64 °FClear.3 mph73%30.21 "Hg10 mi
8:00 PM66 °FClear.13 mph68%30.18 "Hg10 mi
7:00 PM66 °FClear.7 mph73%30.18 "Hg10 mi
6:00 PM68 °FPassing clouds.7 mph69%30.18 "HgN/A
5:00 PM72 °FPassing clouds.10 mph61%30.15 "HgN/A
4:00 PM75 °FScattered clouds.8 mph50%30.15 "HgN/A
Weather by CustomWeather, © 2015

See weather overviewHow to use our weather pages